Location: Unspecified
(0.0000°N, 0.0000°E)
Time: 11:24:26
(UTC+00:00)

LightSail 2 - Pass Details

Date: 15 August 2019
Orbit: 696 x 730 km, 24.0° (Epoch: 07 December)

Event Time Altitude Azimuth Distance (km) Brightness Sun altitude
Exits shadow 03:00:22 - 35° (NE) 2,577 8.5 -44.3°
Enters shadow 04:08:22 -59° 280° (W) 11,735 11.3 -28.1°
Maximum altitude 04:44:32 22° 23° (NNE) 1,553 7.3 -19.4°
